Погода в Гвасюги

Погода в Гвасюги : погода сейчас, прогноз погоды и архив. Всё, что Вы хотите узнать о погоде в Гвасюги!

Поиск расширенной информации на нашем сайте:

Другие новости

Новости СМИ2

Главная страница сайта

Новости сайта

03.07.2017

Напоминаем, что на нашем специализированном сайте Метеоцентр.Азия вы можете получить высокодетализированные автоматические прогнозы погоды по пунктам России, СНГ и мира в авиационном формате (включающие направление и скорость ветра, видимость, явления погоды, количество и форму облачности, нижнюю и верхнюю границу облачности).


Погода в Гвасюги - сегодня

Время (UTC), дата Ветер
(°,м/с) 
Видим.   Явления Облачность Т
(°С)
Тd
(°С)
f(%) Тe
(°С)
Pmin
(гПа)
dP
(гПа)
Po
(мм)
O2
(г/м3)
Тmin Tmax R s Состояние
почвы
18 22.07.17 020 (С) 20000 м    ясно 
+11.3 +10.7 96 +14  1008.6  -1  740  284           
21 22.07.17 360 (С) 0500 м  туман  ?/?  
+12.3 +11.7 96 +18  1008.3  -0.2  740  283  +11.1        сухая 
00 23.07.17 020 (С) 20000 м  {туман}  10/10 600 м 
[Sc]
+16.7 +13.9 84 +25  1006.3  -1.6  739  278           
03 23.07.17 090 (В) 20000 м    10/8 600 м верхняя 
[Sc|Ci sp]
+19.9 +15.3 75 +31  1004.8  -1.3  738  274           
06 23.07.17 070 (В) 20000 м    10/6 600 м верхняя 
[Sc|Ci sp]
+24.6 +17.4 64 +38  1002.4  -1.9  737  268           
09 23.07.17 020 (С) 20000 м    10/10 600 м 
[Sc]
+21.2 +19 87 +38  1001.3  -1.4  736  271    +25.1       
12 23.07.17 020 (С) 10 км  слаб. ливневой дождь  10/10 600 м кучево-дожд. 
[Cb cap]
+18.6 +17.5 93 +33  1002.3  0.8  736  274           
15 23.07.17 160 (Ю) 10 км  слаб. ливневой дождь  10/10 600 м кучево-дожд. 
[Cb cap]
+17.2 +16.5 96 +31  1000.3  -2  735  275           
18 23.07.17 тихо ()   20000 м  в посл. час ливневой дождь  10/10 600 м кучево-дожд. 
[Cb cap]
+16.5 +16 97 +28  999.2  1.2  734  275           
21 23.07.17 тихо ()   20000 м    10/10 600 м кучево-дожд. 
[Cb cap]
+16.9 +16.4 97 +29  998.9  -0.3  734  275  +16.3      влажная 
00 24.07.17 180 (Ю) 20000 м  {ливн. осадки}  8/8 600 м кучево-дожд., верхняя 
[Cb cap|Ci fib]
+21.8 +17.8 78 +36  998.1  -0.5  733  270           
03 24.07.17 340 (С) 10 км  гроза, ливневой дождь  10/10 600 м кучево-дожд. 
[Cb cap]
+18.8 +17.3 91 +34  997.6  -0.6  733  272           
06 24.07.17 270 (З) 20000 м  {гроза, ливн. осадки}  10/10 600 м кучево-дожд., верхняя 
[Cb cap|Ci ing]
+25.8 +14.9 51 +35  996  -1.1  732  266           
09 24.07.17 270 (З) 20000 м    8/4 600 м верхняя 
[Sc|Ci sp]
+24.4 +15.5 58 +35  996.1  0.1  732  267    +25.8     
12 24.07.17 140 (ЮВ) 10 км  гроза, ливневой дождь  10/10 600 м кучево-дожд. 
[Cb cap]
+17 +16.2 95 +30  997.8  1.1  733  274           
15 24.07.17 тихо ()   20000 м  в посл. час гроза{ливн. осадки}  6/4 600 м кучево-дожд., верхняя 
[Cb cap|Ci ing]
+14.8 +14.1 96 +23  998.5  0.5  733  277           
18 24.07.17 тихо ()   0500 м  туман{гроза, ливн. осадки}  ?/?  
+14.9 +14.2 96 +23  998.7  0.2  733  277           
21 24.07.17 200 (Ю) 0500 м  туман  ?/?  
+13.7 +13.2 97 +21  999.4  0.6  734  279  +12.8      влажная 
00 25.07.17 200 (Ю) 20000 м  {ливн. осадки, туман}  5/4 600 м кучево-дожд., верхняя 
[Cb cap|Cc]
+16.4 +13.2 81 +24  999.2  -0.1  734  276           
03 25.07.17 170 (Ю) 20000 м  гроза без осадков{ливн. осадки}  8/8 600 м кучево-дожд. 
[Cb cap]
+15.4 +13.3 87 +22  1000.2  734  277           
06 25.07.17 050 (СВ) 20000 м  в посл. час гроза{ливн. осадки}  6/6 600 м кучево-дожд. 
[Cb cap]
+19.8 +12.5 63 +26  999.9  734  273           
09 25.07.17 270 (З) 20000 м  {ливн. осадки}  9/8 600 м верхняя 
[Cu Sc|Ci sp]
+19.3 +13 67 +27  1001.1  1.1  735  274    +20.8     
12 25.07.17 230 (ЮЗ) 20000 м  {ливн. осадки}  9/3 600 м средняя, верхняя 
[Sc diur, vesp|Ac cast|Ci sp]
+15.4 +14.2 93 +25  1003.2  1.9  737  278           
15 25.07.17 200 (Ю) 20000 м    9/6 600 м средняя 
[Sc|Ac lent]
+14.9 +13.8 93 +23  1004.6  0.2  737  279           
18 25.07.17 200 (Ю) 20000 м    9/9 600 м 
[Sc]
+13.8 +13.3 97 +21  1004.2  0.6  737  280           
Время (UTC), дата Ветер
(°,м/с) 
Видим.   Явления Облачность Т
(°С)
Тd
(°С)
f(%) Тe
(°С)
Pmin
(гПа)
dP
(гПа)
Po
(мм)
O2
(г/м3)
Тmin Tmax R s Состояние
почвы

Для получения пояснительной информации подведите курсор к названию столбца.

ПОГОДА в Гвасюги - архив

Всё, что Вы хотите узнать о погоде в Гвасюги - удобно и подробно!

Выберите нужную дату (начиная с 1 января 2015* года) и нажмите кнопку "Найти".
Будут отображены архивные сводки погоды по пункту Гвасюги, начиная с указанной даты.


Отображать данные в формате CSV (для использования в таблицах Excel)


Внимание! Наш архив погоды предназначен исключительно для личного некоммерческого использования в познавательных целях. Если Вам необходимы официальные справки о состоянии погоды (для производственных, юридических, коммерческих и т.п. целей), обращайтесь в органы Росгидромета.

*Примечание: данная дата относится к архиву по метеостанциям СССР (Россия, СНГ, Балтия).
Архив по метеостанциям Зарубежной Европы и Азии (кроме Китая) хранится 10 дней, по другим регионам земного шара (Китай, Африка, Америка, Австралия, Океания) - 1 день.

Гвасюги - район местоположения метеостанции


Название, широта, долгота, высота метеостанции:
Гвасюги 47.7°ш. 136.2°д. 180 м над ур. моря [Российская Федерация]

Дополнительная информация

В oтличие oт бoльшинства пoгoдных сайтoв мы публикуем пoдрoбную метеoинфoрмацию в детальнoм прoфессиoнальнoм фoрмате.

Характеристики температуры и влажнoсти вoздуха измеряются на высoте 2 м в тени вдали oт зданий и деревьев.
Скoрoсть ветра измеряется на высoте 10 м (на урoвне рoста челoвека скoрoсть ветра ниже в 1.5-2 раза). Если метеoстанция нахoдится в гoрoде или в лесу, тo скoрoсть ветра занижена на 2-4 м/с пo сравнению с oткрытым местoм. Скoрoсть ветра над акватoриями крупных рек и oзёр, а также на вершинах хoлмoв на 2-5 м/с выше, чем в oбычных услoвиях.
Атмoсфернoе давление в разных тoчках местнoсти мoжет значительнo oтличаться oт давления на метеoстанции, в зависимoсти oт услoвий рельефа (при пoдъёме на 10 м давление пoнижается примернo на 1 мм рт.ст.).